Location: Prairie View Elementary School
(39.8322°N, 99.5698°W)
Time: 19:54:06
(UTC+00:00)

Cosmos 1666 - Pass Details

Date: 08 December 2019
Orbit: 498 x 521 km, 82.5° (Epoch: 18 January)

Event Time Altitude Azimuth Distance (km) Brightness Sun altitude
Rises 00:08:34 0° 6° (N) 2,605 6.0 -10.4°
Reaches altitude 10° 00:11:02 10° 22° (NNE) 1,712 4.9 -10.9°
Maximum altitude 00:14:03 23° 75° (ENE) 1,110 3.8 -11.4°
Drops below altitude 10° 00:17:03 10° 129° (SE) 1,696 5.0 -12.0°
Sets 00:19:28 0° 144° (SE) 2,573 6.1 -12.4°
